2E0SQA Weather Reports


time (UTC)temp
F
wind
direction
speed
knots
gust
knots
rain 1hr
in
rain 24hr
in
rain mn
in
humidity
%
barometer
mb
20260507192535 53 240 0.0 0.0 0.01 0.01 0.01 83 1013.2
20260507191814 53 240 0.0 0.0 0.01 0.01 0.01 82 1013.1
20260507191313 53 240 0.0 0.0 0.01 0.01 0.01 81 1013.1
20260507191036 54 240 0.0 0.0 0.01 0.01 0.01 80 1013.1
20260507190530 54 240 0.0 0.0 0.01 0.01 0.01 79 1013.1
20260507185810 54 240 0.0 0.0 0.01 0.01 0.01 78 1013.1
20260507185311 54 212 0.0 0.0 0.01 0.01 0.01 77 1013.1
20260507184804 55 214 0.0 0.0 0.01 0.01 0.01 76 1013.1
20260507184302 55 213 0.0 0.0 0.00 0.00 0.00 74 1013.1
20260507183803 55 189 0.0 0.0 0.00 0.00 0.00 73 1013.1
20260507183522 55 227 0.0 0.0 0.00 0.00 0.00 72 1013.1
20260507182803 55 235 0.0 0.0 0.00 0.00 0.00 72 1013.0
20260507182302 56 105 0.0 0.0 0.00 0.00 0.00 71 1012.9
20260507182021 56 245 0.0 0.0 0.00 0.00 0.00 71 1012.9
20260507181301 56 226 0.0 0.0 0.00 0.00 0.00 70 1012.9
20260507180800 56 248 0.0 0.0 0.00 0.00 0.00 69 1012.8
20260507180258 56 228 0.0 0.0 0.00 0.00 0.00 69 1012.8
20260507175758 57 215 0.0 2.6 0.00 0.00 0.00 67 1012.8
20260507175300 57 219 0.0 2.6 0.00 0.00 0.00 63 1012.8
20260507175023 58 266 0.0 0.0 0.00 0.00 0.00 61 1012.7
20260507174301 58 129 0.0 0.0 0.00 0.00 0.00 60 1012.7
20260507173759 58 270 0.0 0.0 0.00 0.00 0.00 60 1012.7
20260507173300 58 212 0.0 0.0 0.00 0.00 0.00 60 1012.7
20260507172759 58 179 0.0 0.0 0.00 0.00 0.00 60 1012.7
20260507172258 58 329 0.0 0.0 0.00 0.00 0.00 60 1012.7
20260507171759 58 78 0.0 0.0 0.00 0.00 0.00 60 1012.7
20260507171256 58 142 0.0 0.0 0.00 0.00 0.00 59 1012.7
20260507170754 58 195 0.0 0.0 0.00 0.00 0.00 59 1012.7
20260507170255 58 165 0.0 0.0 0.00 0.00 0.00 58 1012.7
20260507165755 58 295 0.0 0.0 0.00 0.00 0.00 58 1012.7
20260507165739 58 255 0.0 0.0 0.00 0.00 0.00 58 1012.7
20260507164755 58 135 0.0 0.0 0.00 0.00 0.00 58 1012.7
20260507164254 58 336 0.0 0.9 0.00 0.00 0.00 58 1012.7
20260507164038 59 331 0.0 0.9 0.00 0.00 0.00 57 1012.7
20260507163253 59 166 0.0 0.9 0.00 0.00 0.00 57 1012.7
20260507162753 59 132 0.0 0.9 0.00 0.00 0.00 58 1012.6
20260507162253 59 34 0.0 0.9 0.00 0.00 0.00 58 1012.5
20260507161753 59 195 0.0 0.9 0.00 0.00 0.00 58 1012.6
20260507161248 59 190 0.0 0.9 0.00 0.00 0.00 57 1012.6
20260507160749 59 151 0.0 0.0 0.00 0.00 0.00 57 1012.7
20260507160327 59 160 0.0 0.0 0.00 0.00 0.00 56 1012.7
20260507160249 59 163 0.0 0.0 0.00 0.00 0.00 56 1012.7
20260507155247 59 162 0.0 0.9 0.00 0.00 0.00 56 1012.7
20260507154746 59 181 0.0 0.9 0.00 0.00 0.00 57 1012.7
20260507154248 58 197 0.0 0.0 0.00 0.00 0.00 58 1012.8
20260507153747 58 190 0.0 0.0 0.00 0.00 0.00 59 1012.8
20260507153245 58 163 0.0 0.0 0.00 0.00 0.00 59 1012.8
20260507152747 58 190 0.0 0.9 0.00 0.00 0.00 58 1012.8
20260507152247 58 146 0.0 0.9 0.00 0.00 0.00 58 1012.9
20260507151748 58 169 0.0 0.9 0.00 0.00 0.00 58 1012.9
20260507151244 58 87 0.0 2.6 0.00 0.00 0.00 58 1012.9
20260507151025 59 160 0.0 2.6 0.00 0.00 0.00 57 1013.0
20260507150529 59 155 0.0 0.9 0.00 0.00 0.00 57 1013.0
20260507145742 59 190 0.0 0.9 0.00 0.00 0.00 56 1013.0
20260507145256 59 127 0.0 0.0 0.00 0.00 0.00 54 1013.0
20260507144740 60 200 0.0 0.0 0.00 0.00 0.00 53 1013.0
20260507144236 60 160 0.0 0.0 0.00 0.00 0.00 53 1013.0
20260507143736 60 153 0.0 0.9 0.00 0.00 0.00 53 1013.2
20260507143237 60 167 0.0 0.9 0.00 0.00 0.00 54 1013.2
20260507142737 60 136 0.0 0.9 0.00 0.00 0.00 54 1013.3
20260507142237 61 135 0.0 1.7 0.00 0.00 0.00 54 1013.4
20260507141735 61 117 0.0 1.7 0.00 0.00 0.00 55 1013.4
20260507141237 60 153 0.0 0.9 0.00 0.00 0.00 54 1013.4
20260507140733 60 170 0.0 0.9 0.00 0.00 0.00 54 1013.4
20260507140232 60 176 0.0 0.9 0.00 0.00 0.00 53 1013.4
20260507135732 60 128 0.0 0.9 0.00 0.00 0.00 54 1013.5
20260507135230 60 81 0.0 0.9 0.00 0.00 0.00 54 1013.6
20260507134731 60 190 0.0 0.9 0.00 0.00 0.00 56 1013.6
20260507134231 60 148 0.0 0.0 0.00 0.00 0.00 55 1013.6
20260507133728 60 188 0.0 0.0 0.00 0.00 0.00 57 1013.7
20260507133228 59 188 0.0 0.0 0.00 0.00 0.00 56 1013.7
20260507132951 59 200 0.0 0.9 0.00 0.00 0.00 56 1013.8
20260507132229 60 129 0.0 0.9 0.00 0.00 0.00 56 1013.7
20260507131728 60 153 0.0 0.0 0.00 0.00 0.00 57 1013.7
20260507131228 59 122 0.0 0.9 0.00 0.00 0.00 57 1013.8
20260507130726 59 98 0.0 0.9 0.00 0.00 0.00 58 1013.8
20260507130226 59 177 0.0 1.7 0.00 0.00 0.00 58 1013.8
20260507125726 59 249 0.0 1.7 0.00 0.00 0.00 58 1013.9
20260507125452 59 180 0.0 0.0 0.00 0.00 0.00 59 1014.0
20260507124726 58 190 0.0 0.0 0.00 0.00 0.00 60 1013.9
20260507124228 59 167 0.0 0.0 0.00 0.00 0.00 59 1014.0
20260507123728 59 283 0.0 0.0 0.00 0.00 0.00 61 1014.0
20260507123227 58 162 0.0 0.0 0.00 0.00 0.00 61 1014.0
20260507122724 58 145 0.0 0.0 0.00 0.00 0.00 61 1014.0
20260507122225 58 206 0.0 0.9 0.00 0.00 0.00 62 1014.0
20260507121725 58 146 0.0 0.9 0.00 0.00 0.00 63 1014.1
20260507121443 57 155 0.0 0.9 0.00 0.00 0.00 67 1014.1
20260507120725 57 158 0.0 0.9 0.00 0.00 0.00 66 1014.1
20260507120223 56 262 0.0 0.0 0.00 0.00 0.00 68 1014.2
20260507115723 56 127 0.0 0.0 0.00 0.00 0.00 70 1014.2
20260507115222 55 158 0.0 0.0 0.00 0.00 0.00 70 1014.2
20260507114722 54 211 0.0 0.0 0.00 0.00 0.00 72 1014.3
20260507114221 54 135 0.0 0.9 0.00 0.00 0.00 73 1014.2
20260507113720 53 152 0.0 0.9 0.00 0.00 0.00 73 1014.3
20260507113221 53 197 0.0 0.9 0.00 0.00 0.00 74 1014.4
20260507112714 53 146 0.0 0.9 0.00 0.00 0.00 74 1014.4
20260507112214 53 319 0.0 0.0 0.00 0.00 0.00 76 1014.5
20260507111714 52 191 0.0 0.0 0.00 0.00 0.00 77 1014.4
20260507111215 52 169 0.0 0.9 0.00 0.00 0.00 77 1014.4
20260507110715 51 259 0.0 0.9 0.00 0.00 0.00 78 1014.5
20260507110214 51 190 0.0 0.0 0.00 0.00 0.00 78 1014.5
20260507105714 51 199 0.0 0.0 0.00 0.00 0.00 79 1014.5
20260507105215 50 195 0.0 0.0 0.00 0.00 0.00 79 1014.6
20260507104714 50 187 0.0 0.0 0.00 0.00 0.00 79 1014.7
20260507104650 50 236 0.0 0.9 0.00 0.00 0.00 79 1014.7
20260507103711 50 205 0.0 0.9 0.00 0.00 0.00 80 1014.7
20260507103210 50 311 0.0 0.0 0.00 0.00 0.00 80 1014.7
20260507102714 49 108 0.0 0.9 0.00 0.00 0.00 81 1014.7
20260507102231 49 168 0.0 0.9 0.00 0.00 0.00 81 1014.7
20260507101710 49 138 0.0 0.0 0.00 0.00 0.00 82 1014.7
20260507101224 49 163 0.0 0.0 0.00 0.00 0.00 82 1014.7
20260507100712 49 122 0.0 0.0 0.00 0.00 0.00 82 1014.7
20260507100210 48 158 0.0 0.9 0.00 0.00 0.00 83 1014.7
20260507095933 48 158 0.0 0.9 0.00 0.00 0.00 83 1014.7
20260507095206 48 153 0.0 0.9 0.00 0.00 0.00 83 1014.7
20260507094928 48 166 0.0 0.9 0.00 0.00 0.00 83 1014.7
20260507094206 48 155 0.0 0.9 0.00 0.00 0.00 83 1014.7
20260507093706 48 193 0.0 0.9 0.00 0.00 0.00 84 1014.7
20260507093206 47 179 0.0 0.0 0.00 0.00 0.00 84 1014.7
20260507092710 47 162 0.0 0.0 0.00 0.00 0.00 85 1014.7
20260507092208 47 162 0.0 0.0 0.00 0.00 0.00 85 1014.7
20260507091708 47 159 0.0 1.7 0.00 0.00 0.00 85 1014.8
20260507091206 47 133 0.0 1.7 0.00 0.00 0.00 85 1014.7
20260507090708 47 152 0.0 0.0 0.00 0.00 0.00 86 1014.7
20260507090207 47 190 0.0 0.0 0.00 0.00 0.00 86 1014.7
20260507085706 47 172 0.0 0.0 0.00 0.00 0.00 86 1014.7
20260507085207 46 129 0.0 0.0 0.00 0.00 0.00 86 1014.6
20260507084706 46 143 0.0 0.0 0.00 0.00 0.00 87 1014.6
20260507084206 46 190 0.0 0.0 0.00 0.00 0.00 87 1014.6
20260507083706 46 165 0.0 0.0 0.00 0.00 0.00 87 1014.6
20260507083434 46 150 0.0 0.9 0.00 0.00 0.00 87 1014.6
20260507082703 46 106 0.0 0.9 0.00 0.00 0.00 88 1014.7
20260507082202 46 183 0.0 0.0 0.00 0.00 0.00 88 1014.6
20260507081703 46 115 0.0 0.0 0.00 0.00 0.00 88 1014.6
20260507081204 46 162 0.0 0.0 0.00 0.00 0.00 88 1014.6
20260507080926 46 154 0.0 0.0 0.00 0.00 0.00 88 1014.6
20260507080201 46 155 0.0 0.0 0.00 0.00 0.00 88 1014.6
20260507075703 46 204 0.0 0.0 0.00 0.00 0.00 88 1014.7
20260507075203 46 208 0.0 0.0 0.00 0.00 0.00 88 1014.6
20260507074701 46 145 0.0 0.9 0.00 0.00 0.00 88 1014.7
20260507074428 45 160 0.0 0.9 0.00 0.00 0.00 88 1014.7
20260507073703 45 183 0.0 0.0 0.00 0.00 0.00 88 1014.6
20260507073202 45 143 0.0 0.0 0.00 0.00 0.00 88 1014.6
20260507072703 45 200 0.0 0.0 0.00 0.00 0.00 88 1014.5
20260507072203 45 179 0.0 0.0 0.00 0.00 0.00 88 1014.6
20260507071703 45 190 0.0 0.0 0.00 0.00 0.00 88 1014.5
20260507071204 45 186 0.0 0.0 0.00 0.00 0.00 88 1014.5
20260507070703 45 167 0.0 0.0 0.00 0.00 0.00 88 1014.5
20260507070203 45 122 0.0 0.0 0.00 0.00 0.00 88 1014.5
20260507065702 45 166 0.0 0.0 0.00 0.00 0.00 88 1014.5
20260507065203 45 159 0.0 0.0 0.00 0.00 0.00 88 1014.4
20260507064705 45 159 0.0 0.0 0.00 0.00 0.00 89 1014.4
20260507064204 45 162 0.0 0.9 0.00 0.00 0.00 89 1014.4
20260507063702 45 150 0.0 0.9 0.00 0.00 0.00 89 1014.4
20260507063203 45 156 0.0 0.0 0.00 0.00 0.00 89 1014.4
20260507062702 45 192 0.0 0.0 0.00 0.00 0.00 89 1014.4
20260507062202 44 183 0.0 0.0 0.00 0.00 0.00 89 1014.4
20260507061703 44 160 0.0 0.0 0.00 0.00 0.00 89 1014.4
20260507061432 44 117 0.0 0.0 0.00 0.00 0.00 89 1014.4
20260507060921 44 212 0.0 0.0 0.00 0.00 0.00 89 1014.4
20260507060202 44 219 0.0 0.0 0.00 0.00 0.00 89 1014.4
20260507055703 44 176 0.0 0.9 0.00 0.00 0.00 89 1014.4
20260507055203 44 193 0.0 0.9 0.00 0.00 0.00 89 1014.3
20260507054702 44 198 0.0 0.9 0.00 0.00 0.00 89 1014.3
20260507054200 44 143 0.0 1.7 0.00 0.00 0.00 88 1014.3
20260507053658 44 199 0.0 1.7 0.00 0.00 0.00 89 1014.3
20260507053430 44 164 0.0 0.9 0.00 0.00 0.00 89 1014.3
20260507052658 44 162 0.0 0.0 0.00 0.00 0.00 89 1014.3
20260507052158 44 185 0.0 0.0 0.00 0.00 0.00 88 1014.3
20260507051658 44 85 0.0 0.0 0.00 0.00 0.00 88 1014.3
20260507051159 44 146 0.0 0.9 0.00 0.00 0.00 88 1014.3
20260507050658 44 205 0.0 0.9 0.00 0.00 0.00 89 1014.2
20260507050200 44 136 0.0 1.7 0.00 0.00 0.00 89 1014.2
20260507045655 44 156 0.0 1.7 0.00 0.00 0.00 89 1014.2
20260507045156 44 184 0.0 0.9 0.00 0.00 0.00 89 1014.2
20260507044919 44 115 0.0 0.0 0.00 0.00 0.00 89 1014.2
20260507044157 43 140 0.0 0.0 0.00 0.00 0.00 89 1014.2
20260507043655 43 208 0.0 0.0 0.00 0.00 0.00 89 1014.2
20260507043155 43 155 0.0 0.0 0.00 0.00 0.00 89 1014.3
20260507042655 43 163 0.0 0.0 0.00 0.00 0.00 89 1014.2
20260507042155 43 148 0.0 0.9 0.00 0.00 0.00 89 1014.3
20260507041654 43 159 0.0 0.9 0.00 0.00 0.00 89 1014.3
20260507041148 43 177 0.0 0.0 0.00 0.00 0.00 89 1014.2
20260507040645 43 147 0.0 0.0 0.00 0.00 0.00 89 1014.2
20260507040135 43 136 0.0 0.0 0.00 0.00 0.00 89 1014.2
20260507035631 43 129 0.0 0.0 0.00 0.00 0.00 89 1014.2
20260507035124 43 156 0.0 0.0 0.00 0.00 0.00 89 1014.3
20260507034618 43 174 0.0 0.0 0.00 0.00 0.00 89 1014.3
20260507034111 43 155 0.0 0.0 0.00 0.00 0.00 89 1014.3
20260507033604 43 160 0.0 0.0 0.00 0.00 0.00 89 1014.3
20260507033101 43 153 0.0 0.0 0.00 0.00 0.00 89 1014.3
20260507033020 43 136 0.0 0.0 0.00 0.00 0.00 88 1014.3
20260507032633 43 191 0.0 0.0 0.00 0.00 0.00 88 1014.3
20260507031542 43 187 0.0 0.0 0.00 0.00 0.00 88 1014.4
20260507031035 43 190 0.0 0.0 0.00 0.00 0.00 88 1014.3
20260507030531 43 141 0.0 0.0 0.00 0.00 0.00 88 1014.4
20260507030106 43 187 0.0 0.0 0.00 0.00 0.00 87 1014.4
20260507025517 43 164 0.0 0.0 0.00 0.00 0.00 87 1014.4
20260507025011 43 170 0.0 0.0 0.00 0.00 0.00 87 1014.4
20260507024504 43 210 0.0 0.0 0.00 0.00 0.00 87 1014.4
20260507023959 43 176 0.0 0.0 0.00 0.00 0.00 87 1014.4
20260507023453 43 160 0.0 0.0 0.00 0.00 0.00 86 1014.4
20260507022947 44 136 0.0 0.0 0.00 0.00 0.00 86 1014.4
20260507022440 44 200 0.0 0.0 0.00 0.00 0.00 86 1014.4
20260507021934 44 183 0.0 0.0 0.00 0.00 0.00 86 1014.4
20260507021429 44 167 0.0 0.0 0.00 0.00 0.00 85 1014.4
20260507020923 44 163 0.0 0.0 0.00 0.00 0.00 85 1014.3
20260507020645 44 136 0.0 0.0 0.00 0.00 0.00 85 1014.3
20260507015909 44 186 0.0 0.0 0.00 0.00 0.00 85 1014.3
20260507015404 44 170 0.0 0.9 0.00 0.00 0.00 85 1014.3
20260507014858 45 119 0.0 0.9 0.00 0.00 0.00 85 1014.3
20260507014354 45 160 0.0 0.0 0.00 0.00 0.00 85 1014.4
20260507013847 45 197 0.0 0.0 0.00 0.00 0.00 85 1014.4
20260507013341 45 122 0.0 0.0 0.00 0.00 0.00 85 1014.4
20260507012834 45 166 0.0 0.0 0.00 0.00 0.00 85 1014.4
20260507012822 45 149 0.0 0.0 0.00 0.00 0.00 85 1014.4
20260507011823 45 176 0.0 0.9 0.00 0.00 0.00 84 1014.4
20260507011316 45 131 0.0 0.9 0.00 0.00 0.00 84 1014.4
20260507010811 45 146 0.0 0.9 0.00 0.00 0.00 84 1014.5
20260507010305 45 183 0.0 0.9 0.00 0.00 0.00 84 1014.6
20260507010107 45 117 0.0 0.0 0.00 0.00 0.00 84 1014.6
20260507005517 45 156 0.0 0.0 0.00 0.00 0.00 84 1014.6
20260507004746 45 172 0.0 0.0 0.00 0.00 0.00 83 1014.7
20260507004457 45 153 0.0 0.0 0.00 0.00 0.00 83 1014.6
20260507003734 45 152 0.0 0.9 0.00 0.00 0.00 83 1014.7
20260507003229 45 160 0.0 0.0 0.00 0.00 0.00 83 1014.7
20260507002722 45 143 0.0 0.9 0.00 0.00 0.00 83 1014.7
20260507002216 46 170 0.0 0.0 0.00 0.00 0.00 83 1014.8
20260507001711 46 126 0.0 0.0 0.00 0.00 0.00 82 1014.8
20260507001204 46 190 0.0 0.0 0.00 0.00 0.00 82 1014.8
20260507000658 46 172 0.0 0.0 0.00 0.00 0.00 82 1014.8
20260507000153 46 155 0.0 0.0 0.00 0.00 0.00 82 1014.8
20260506235645 46 139 0.0 0.0 0.00 0.00 0.00 82 1014.8
20260506235141 46 155 0.0 0.0 0.00 0.00 0.00 82 1014.7
20260506234633 46 105 0.0 0.0 0.00 0.00 0.00 82 1014.7
20260506234130 46 113 0.0 0.9 0.00 0.00 0.00 82 1014.7
20260506233622 46 187 0.0 0.9 0.00 0.00 0.00 82 1014.7
20260506233116 46 147 0.0 0.9 0.00 0.00 0.00 81 1014.6
20260506232610 46 108 0.0 0.9 0.00 0.00 0.00 81 1014.6
20260506232105 46 136 0.0 0.9 0.00 0.00 0.00 81 1014.6
20260506231559 47 75 0.0 0.0 0.00 0.00 0.00 81 1014.6
20260506231052 47 153 0.0 0.0 0.00 0.00 0.00 80 1014.5
20260506230546 47 177 0.0 0.0 0.00 0.00 0.00 80 1014.6
20260506230338 47 124 0.0 0.0 0.00 0.00 0.00 80 1014.6
20260506230107 47 160 0.0 0.0 0.00 0.00 0.00 80 1014.6
20260506225028 47 113 0.0 0.9 0.00 0.00 0.00 79 1014.5
20260506224523 47 187 0.0 0.9 0.00 0.00 0.00 79 1014.5
20260506224016 47 159 0.0 0.0 0.00 0.00 0.00 79 1014.5
20260506223511 47 140 0.0 0.0 0.00 0.00 0.00 79 1014.4
20260506223005 47 120 0.0 0.0 0.00 0.00 0.00 78 1014.4
20260506222718 47 208 0.0 0.0 0.00 0.00 0.00 78 1014.4
20260506221952 47 172 0.0 0.0 0.00 0.00 0.00 78 1014.4
20260506221447 48 123 0.0 0.0 0.00 0.00 0.00 77 1014.4
20260506220940 48 123 0.0 0.0 0.00 0.00 0.00 77 1014.4
20260506220434 48 112 0.0 0.0 0.00 0.00 0.00 77 1014.3
20260506215930 48 112 0.0 0.0 0.00 0.00 0.00 77 1014.2
20260506215422 48 152 0.0 0.0 0.00 0.00 0.00 77 1014.2
20260506214916 48 101 0.0 0.0 0.00 0.00 0.00 76 1014.2
20260506214409 48 190 0.0 0.0 0.00 0.00 0.00 76 1014.2
20260506213904 48 105 0.0 0.0 0.00 0.00 0.00 76 1014.2
20260506213400 48 146 0.0 0.0 0.00 0.00 0.00 76 1014.2
20260506212853 48 108 0.0 0.0 0.00 0.00 0.00 75 1014.2
20260506212346 49 124 0.0 0.0 0.00 0.00 0.00 75 1014.2
20260506211842 49 149 0.0 0.0 0.00 0.00 0.00 75 1014.2
20260506211335 49 131 0.0 0.0 0.00 0.00 0.00 74 1014.2
20260506211054 49 73 0.0 0.0 0.00 0.00 0.00 74 1014.2
20260506210324 49 140 0.0 0.0 0.00 0.00 0.00 74 1014.2
20260506205818 49 141 0.0 0.0 0.00 0.00 0.00 74 1014.2
20260506205311 49 136 0.0 0.0 0.00 0.00 0.00 73 1014.1
20260506204804 49 147 0.0 0.0 0.00 0.00 0.00 73 1014.1
20260506204258 49 131 0.0 0.0 0.00 0.00 0.00 72 1014.1
20260506203752 49 54 0.0 0.0 0.00 0.00 0.00 72 1014.1
20260506203243 49 136 0.0 0.0 0.00 0.00 0.00 72 1014.0
20260506202736 49 138 0.0 0.0 0.00 0.00 0.00 71 1014.0
20260506202231 49 174 0.0 0.0 0.00 0.00 0.00 71 1013.9
20260506201725 49 141 0.0 0.0 0.00 0.00 0.00 71 1013.9
20260506201219 49 113 0.0 0.0 0.00 0.00 0.00 70 1013.8
20260506200715 49 115 0.0 0.0 0.00 0.00 0.00 70 1013.7
20260506200205 50 131 0.0 0.0 0.00 0.00 0.00 69 1013.7
20260506195700 50 122 0.0 0.0 0.00 0.00 0.00 69 1013.6
20260506195422 50 113 0.0 0.0 0.00 0.00 0.00 68 1013.5
20260506194649 50 131 0.0 0.0 0.00 0.00 0.00 68 1013.4
20260506194142 50 103 0.0 0.0 0.00 0.00 0.00 67 1013.4
20260506193637 50 117 0.0 0.0 0.00 0.00 0.00 66 1013.4
20260506193351 50 186 0.0 0.0 0.00 0.00 0.00 66 1013.3